This demonstration page uses our WeatherBlox Daily Observations layout. Learn more.

Left ArrowRight Arrow

39.08367, -84.50855

Hourly Observations for July 18, 2017

Temp ( °F °C ) Dew Point ( °F °C ) Humidity (%) Winds ( mph kmh ) Pressure ( in mb ) Visibility ( mi km ) Precip ( " mm )
12:08 am 00:08 Clear with Mist and Fog 71 21.7 71 21.7 100 100 N N/A 30 1016 2 3.21868 N/A
12:16 am 00:16 Clear with Mist and Fog 71 21.7 71 21.7 100 100 N N/A 30 1016 3 4.82802 N/A
12:39 am 00:39 Clear with Mist and Fog 71 21.7 71 21.7 100 100 N N/A 30 1016 1.75 2.816345 N/A
12:53 am 00:53 Clear with Mist and Fog 71 21.7 71 21.7 100 100 N N/A 30.01 1016 1.25 2.011675 N/A
1:13 am 01:13 Clear with Mist and Fog 71 21.7 71 21.7 100 100 N N/A 30 1016 2.5 4.02335 N/A
1:21 am 01:21 Clear with Mist and Fog 71 21.7 71 21.7 100 100 N N/A 30 1016 3 4.82802 N/A
1:43 am 01:43 Clear with Mist and Fog 70 21.1 70 21.1 100 100 N N/A 30 1016 2.5 4.02335 N/A
1:51 am 01:51 Clear with Mist and Fog 70 21 70 21 100 100 N N/A 30 1016 0.75 1.207005 N/A
1:53 am 01:53 Clear with Mist and Fog 70 21.1 70 21.1 100 100 N N/A 30.02 1017 0.75 1.207005 N/A
1:57 am 01:57 Clear with Mist and Fog 70 21.1 70 21.1 100 100 N N/A 30 1016 2.5 4.02335 N/A
2:04 am 02:04 Clear with Mist and Fog 70 21.1 70 21.1 100 100 N N/A 30 1016 5 8.0467 N/A
2:27 am 02:27 Clear with Mist and Fog 70 21.1 70 21.1 100 100 N N/A 30 1016 1.75 2.816345 N/A
2:44 am 02:44 Clear with Mist and Fog 70 21.1 70 21.1 100 100 N N/A 30 1016 3 4.82802 N/A
2:53 am 02:53 Clear with Mist and Fog 70 21.1 70 21.1 100 100 N N/A 30.02 1017 5 8.0467 N/A
3:10 am 03:10 Clear with Mist and Fog 68 20 68 20 100 100 N N/A 30 1016 1.5 2.41401 N/A
3:20 am 03:20 Clear with Mist and Fog 68 20 68 20 100 100 N N/A 30 1016 0.75 1.207005 N/A
3:25 am 03:25 Clear with Mist and Fog 68 20 68 20 100 100 N N/A 30 1016 2.5 4.02335 N/A
3:32 am 03:32 Mostly Clear with Mist and Fog 69 20.6 69 20.6 100 100 N N/A 30 1016 2.5 4.02335 N/A
3:40 am 03:40 Mostly Clear with Mist and Fog 69 20.6 69 20.6 100 100 N N/A 30 1016 3 4.82802 N/A
3:47 am 03:47 Mostly Cloudy with Mist and Fog 70 21 70 21 100 100 N N/A 30 1016 3 4.82802 N/A
3:53 am 03:53 Mostly Cloudy with Mist and Fog 69 20.6 69 20.6 100 100 N N/A 30.02 1017 6 9.65604 N/A
4:01 am 04:01 Mostly Cloudy with Mist and Fog 70 21.1 70 21.1 100 100 N N/A 30 1016 1.75 2.816345 N/A
4:10 am 04:10 Mostly Cloudy with Fog 69 20.6 69 20.6 100 100 N N/A 30 1016 0.5 0.80467 N/A
4:44 am 04:44 Mostly Cloudy with Fog 69 20.6 69 20.6 100 100 N N/A 30.03 1017 0.5 0.80467 N/A
4:53 am 04:53 Mostly Cloudy with Fog 69 20.6 69 20.6 100 100 N N/A 30.04 1017 0.5 0.80467 N/A
5:05 am 05:05 Mostly Cloudy with Mist and Fog 68 20 68 20 100 100 N N/A 30.03 1017 2.5 4.02335 N/A
5:11 am 05:11 Mostly Cloudy with Mist and Fog 68 20 68 20 100 100 N N/A 30.03 1017 0.75 1.207005 N/A
5:22 am 05:22 Mostly Cloudy with Mist and Fog 68 20 68 20 100 100 N N/A 30.03 1017 1 1.60934 N/A
5:25 am 05:25 Mostly Cloudy with Fog 68 20 68 20 100 100 N N/A 30.03 1017 0.5 0.80467 N/A
5:35 am 05:35 Mostly Cloudy with Fog 68 20 68 20 100 100 N N/A 30.03 1017 0.25 0.402335 N/A
5:58 am 05:58 Mostly Cloudy with Mist and Fog 68 20 68 20 100 100 N N/A 30.03 1017 1 1.60934 N/A
6:05 am 06:05 Mostly Cloudy with Mist and Fog 68 20 68 20 100 100 N N/A 30.03 1017 0.75 1.207005 N/A
6:08 am 06:08 Mostly Clear with Mist and Fog 68 20 68 20 100 100 N N/A 30.03 1017 1.25 2.011675 N/A
6:17 am 06:17 Mostly Cloudy with Mist and Fog 68 20 68 20 100 100 N N/A 30.03 1017 0.75 1.207005 N/A
6:27 am 06:27 Mostly Cloudy with Mist and Fog 68 20 68 20 100 100 N N/A 30.03 1017 1 1.60934 N/A
6:34 am 06:34 Mostly Cloudy with Mist and Fog 68 20 68 20 100 100 N N/A 30.03 1017 0.75 1.207005 N/A
6:41 am 06:41 Mostly Cloudy with Mist and Fog 68 20 68 20 100 100 N N/A 30.03 1017 1.25 2.011675 N/A
6:49 am 06:49 Partly Cloudy with Mist and Fog 68 20 68 20 100 100 N N/A 30.03 1017 2 3.21868 N/A
6:50 am 06:50 Partly Cloudy with Mist and Fog 68 20 68 20 100 100 N N/A 30.06 1018 2.5 4.02335 N/A
7:05 am 07:05 Partly Cloudy with Patchy Fog 68 20 68 20 100 100 N N/A 30.03 1017 3 4.82802 N/A
7:53 am 07:53 Partly Cloudy with Mist and Fog 71 21.7 71 21.7 100 100 N N/A 30.06 1018 5 8.0467 N/A
8:53 am 08:53 Sunny 75 23.9 73 22.8 94 94 N N/A 30.06 1018 10 16.0934 N/A
9:53 am 09:53 Sunny 80 26.7 74 23.3 82 82 N N/A 30.07 1018 10 16.0934 N/A
10:53 am 10:53 Sunny 84 28.9 74 23.3 72 72 S 8 13 30.07 1018 10 16.0934 N/A
11:53 am 11:53 Sunny 86 30 71 21.7 61 61 S 7 11 30.07 1018 10 16.0934 N/A
12:53 pm 12:53 Mostly Sunny 86 30 72 22.2 63 63 S 10 17 30.06 1018 10 16.0934 N/A
1:53 pm 13:53 Partly Cloudy 86 30 72 22.2 63 63 S 6 9 30.06 1018 10 16.0934 N/A
2:53 pm 14:53 Mostly Cloudy 87 30.6 72 22.2 61 61 S 10 17 30.05 1018 10 16.0934 N/A
3:53 pm 15:53 Partly Cloudy 88 31.1 73 22.8 61 61 S 8 13 30.04 1017 10 16.0934 N/A
4:53 pm 16:53 Partly Cloudy 88 31.1 74 23.3 63 63 S 7 11 30.03 1017 10 16.0934 N/A
5:53 pm 17:53 Mostly Cloudy 86 30 73 22.8 65 65 SSW 10 17 30.03 1017 10 16.0934 N/A
6:53 pm 18:53 Cloudy 86 30 75 23.9 70 70 S 6 9 30.02 1017 10 16.0934 N/A
7:53 pm 19:53 Sunny 83 28.3 75 23.9 77 77 S 6 9 30.03 1017 10 16.0934 N/A
8:53 pm 20:53 Sunny 80 26.7 75 23.9 85 85 N N/A 30.03 1017 10 16.0934 N/A
9:53 pm 21:53 Clear with Light Rain 79 26.1 74 23.3 85 85 N N/A 30.05 1018 10 16.0934 0.001 0.001
10:53 pm 22:53 Clear 76 24.4 73 22.8 91 91 N N/A 30.07 1018 10 16.0934 0.001 0.001
11:53 pm 23:53 Mostly Clear 74 23.3 73 22.8 97 97 N N/A 30.07 1018 9 14.48406 N/A

Powered by AerisWeather